Location: Coopersdale
(40.3556°N, 78.9372°W)
Time: 09:48:30
(UTC+00:00)

Envisat - Pass Details

Date: 04 December 2020
Orbit: 764 x 766 km, 98.1° (Epoch: 15 January)

Event Time Altitude Azimuth Distance (km) Brightness Sun altitude
Rises 23:02:22 0° 190° (S) 3,217 6.6 -13.6°
Reaches altitude 10° 23:04:53 10° 200° (SSW) 2,296 6.0 -14.0°
Maximum altitude 23:09:24 32° 264° (W) 1,284 4.9 -14.8°
Drops below altitude 10° 23:13:57 10° 327° (NNW) 2,311 5.7 -15.7°
Sets 23:16:30 0° 337° (NNW) 3,241 6.3 -16.1°
